Weather History for Sitka, AK

Change the Weather History Date:

Saturday, December 3, 2011

  Actual Average Record
Temperature  
Mean Temperature 39 °F -  
Max Temperature 42 °F 39 °F 52 °F (1989)
Min Temperature 36 °F 31 °F 1 °F (1970)
Degree Days  
Heating Degree Days 26    
Moisture  
Dew Point 38 °F    
Average Humidity 97    
Maximum Humidity 100    
Minimum Humidity 87    
Precipitation  
Precipitation 0.03 in - - ()
Sea Level Pressure  
Sea Level Pressure 30.54 in    
Wind  
Wind Speed 4 mph (SE)    
Max Wind Speed 8 mph    
Max Gust Speed -    
Visibility 8 miles    
Events Rain    
Averages and records for this station are not official NWS values.
T = Trace of Precipitation, MM = Missing Value Source: NWS Daily Summary

Daily Weather History Graph

Daily Weather History Graph

Search for Another Location

Airport:

Trip Planner

Search our weather history database for the weather conditions in past years. The results will help you decide how hot, cold, wet, or windy it might be!

Date:

Astronomy

Dec. 03, 2011 Rise Set
Actual Time 8:18 AM AKST 3:24 PM AKST
Civil Twilight 7:30 AM AKST 4:11 PM AKST
Nautical Twilight 6:40 AM AKST 5:01 PM AKST
Astronomical Twilight 5:54 AM AKST 5:47 PM AKST
Moon 12:33 PM AKST (12/3) 12:46 AM AKST (12/3)
Length of Visible Light 8h 41m
Length of Day
7h 05m
Waxing Gibbous, 64% of the Moon is Illuminated
Dec 3
Waxing Gibbous
Dec 10
Full
Dec 17
Last Quarter
Dec 24
New
Dec 31
First Quarter

Hourly Weather History & Observations

Time (AKST) Temp. Windchill Dew Point Humidity Pressure Visibility Wind Dir Wind Speed Gust Speed Precip Events Conditions
12:53 AM 41.0 °F 36.4 °F 39.9 °F 96% 30.46 in 7.0 mi SW 6.9 mph - N/A   Overcast
1:00 AM 42.8 °F 38.6 °F 39.2 °F 87% 30.46 in 7.0 mi SW 6.9 mph - N/A   Overcast
1:36 AM 41.0 °F 38.0 °F 39.2 °F 93% 30.47 in 5.0 mi South 4.6 mph - 0.00 in   Overcast
1:53 AM 41.0 °F 35.8 °F 39.9 °F 96% 30.47 in 5.0 mi SW 8.1 mph - 0.00 in Rain Light Rain
3:45 AM 41.0 °F 37.1 °F 39.2 °F 93% 30.49 in 8.0 mi SSE 5.8 mph - N/A   Overcast
3:53 AM 41.0 °F 37.1 °F 39.0 °F 93% 30.49 in 8.0 mi SSE 5.8 mph - N/A   Overcast
4:53 AM 41.0 °F 38.0 °F 37.9 °F 89% 30.49 in 10.0 mi East 4.6 mph - N/A   Overcast
5:53 AM 39.0 °F 35.7 °F 37.9 °F 96% 30.50 in 10.0 mi ESE 4.6 mph - N/A   Overcast
6:07 AM 39.2 °F 35.0 °F 37.4 °F 93% 30.50 in 10.0 mi East 5.8 mph - N/A   Overcast
6:53 AM 37.0 °F - 37.0 °F 100% 30.50 in 10.0 mi Calm Calm - N/A   Scattered Clouds
7:53 AM 37.0 °F 32.4 °F 37.0 °F 100% 30.50 in 10.0 mi ESE 5.8 mph - N/A   Clear
8:53 AM 37.0 °F 31.6 °F 36.0 °F 96% 30.52 in 10.0 mi ESE 6.9 mph - N/A   Clear
9:53 AM 36.0 °F - 36.0 °F 100% 30.55 in 10.0 mi Calm Calm - N/A   Clear
10:53 AM 37.0 °F 32.4 °F 36.0 °F 96% 30.55 in 10.0 mi East 5.8 mph - N/A   Overcast
11:53 AM 39.0 °F - 37.9 °F 96% 30.57 in 10.0 mi Calm Calm - N/A   Overcast
12:53 PM 39.9 °F - 37.9 °F 93% 30.56 in 10.0 mi Calm Calm - N/A   Overcast
1:53 PM 39.9 °F - 37.9 °F 93% 30.56 in 10.0 mi Calm Calm - N/A   Overcast
2:45 PM 39.2 °F - 37.4 °F 93% 30.55 in 10.0 mi Calm Calm - N/A   Overcast
2:53 PM 39.0 °F - 37.9 °F 96% 30.56 in 10.0 mi Calm Calm - N/A   Overcast
3:13 PM 39.2 °F - 37.4 °F 93% 30.56 in 10.0 mi Calm Calm - N/A   Overcast
3:53 PM 39.0 °F - 37.9 °F 96% 30.55 in 10.0 mi Calm Calm - N/A   Overcast
4:30 PM 39.2 °F - 39.2 °F 100% 30.56 in 10.0 mi Calm Calm - N/A   Overcast
4:53 PM 39.0 °F - 39.0 °F 100% 30.56 in 10.0 mi Calm Calm - N/A   Overcast
5:53 PM 39.0 °F - 39.0 °F 100% 30.56 in 6.0 mi Calm Calm - 0.00 in   Overcast
6:53 PM 37.9 °F - 37.9 °F 100% 30.56 in 5.0 mi Calm Calm - 0.00 in Rain Light Rain
7:53 PM 37.9 °F - 37.9 °F 100% 30.56 in 9.0 mi Calm Calm - 0.01 in   Overcast
8:53 PM 39.0 °F 36.8 °F 39.0 °F 100% 30.58 in 4.0 mi North 3.5 mph - N/A   Overcast
9:21 PM 39.2 °F - 39.2 °F 100% 30.58 in 2.5 mi Calm Calm - 0.00 in   Overcast
9:53 PM 39.0 °F - 39.0 °F 100% 30.59 in 2.5 mi Calm Calm - 0.01 in   Overcast
10:29 PM 39.2 °F 37.0 °F 39.2 °F 100% 30.59 in 3.0 mi ESE 3.5 mph - N/A   Overcast
10:53 PM 39.0 °F 36.8 °F 39.0 °F 100% 30.58 in 7.0 mi ESE 3.5 mph - N/A   Overcast
11:23 PM 39.2 °F 35.9 °F 39.2 °F 100% 30.58 in 2.0 mi East 4.6 mph - 0.01 in   Overcast
11:41 PM 39.2 °F 37.0 °F 39.2 °F 100% 30.58 in 3.0 mi ESE 3.5 mph - 0.01 in   Overcast
11:53 PM 39.0 °F 35.7 °F 39.0 °F 100% 30.58 in 4.0 mi East 4.6 mph - 0.01 in   Overcast